Time,Snow Cover Fraction,Confidence
2024-04-30T06:00:37,0,100.0
2024-04-30T06:30:37,0,100.0
2024-04-30T07:00:37,0,100.0
2024-04-30T07:30:37,0,90.88
2024-04-30T08:00:37,0,68.02
2024-04-30T08:30:36,0,99.38
2024-04-30T09:00:37,0,92.44
2024-04-30T09:30:36,0,99.97
2024-04-30T10:00:36,0,99.95
2024-04-30T10:30:36,0,99.97
2024-04-30T11:00:36,0,99.96
2024-04-30T11:30:36,0,100.0
2024-04-30T12:00:36,0,100.0
2024-04-30T12:30:36,0,99.98
2024-04-30T13:00:37,0,89.62
2024-04-30T13:30:37,0,99.91
2024-04-30T14:00:36,0,99.97
2024-04-30T14:30:37,0,71.76
2024-04-30T15:00:37,0,99.94
2024-04-30T15:30:37,0,99.98
2024-04-30T16:00:36,0,99.98
2024-04-30T16:30:37,0,99.18
2024-04-30T17:00:36,0,98.81
2024-04-30T17:30:36,0,90.18
2024-04-30T18:00:36,0,99.99
2024-04-30T18:30:36,0,99.86
2024-05-01T05:30:36,0,81.48
2024-05-01T06:00:37,0,100.0
2024-05-01T06:30:37,0,99.3
2024-05-01T07:00:36,0,96.59
2024-05-01T07:30:37,0,99.98
2024-05-01T08:00:37,0,99.97
2024-05-01T08:30:37,0,99.95
2024-05-01T09:00:36,0,99.94
2024-05-01T09:30:36,0,100.0
2024-05-01T10:00:37,0,99.01
2024-05-01T10:30:36,0,99.87
2024-05-01T11:00:36,0,99.41
2024-05-01T11:30:37,0,99.98
2024-05-01T12:00:37,0,99.98
2024-05-01T12:30:36,0,99.99
2024-05-01T13:00:37,0,99.98
2024-05-01T13:30:37,0,99.98
2024-05-01T14:00:37,0,100.0
2024-05-01T14:30:36,0,99.93
2024-05-01T15:00:36,0,99.92
2024-05-01T15:30:36,0,99.14
2024-05-01T16:00:36,0,98.77
2024-05-01T16:30:36,0,95.82
2024-05-01T17:00:36,0,98.31
2024-05-01T17:30:36,0,82.78
2024-05-01T18:00:37,0,63.66
2024-05-01T18:30:36,100,93.57
2024-05-02T05:30:37,0,97.84
2024-05-02T06:00:37,0,100.0
2024-05-02T06:30:37,0,100.0
2024-05-02T07:00:36,0,100.0
2024-05-02T07:30:36,0,100.0
2024-05-02T08:00:36,0,100.0
2024-05-02T08:30:37,0,100.0
2024-05-02T09:00:36,0,100.0
2024-05-02T09:30:37,0,100.0
2024-05-02T10:00:36,0,100.0
2024-05-02T10:30:36,0,100.0
2024-05-02T11:00:36,0,100.0
2024-05-02T11:30:36,0,100.0
2024-05-02T12:00:36,0,100.0
2024-05-02T12:30:37,0,100.0
2024-05-02T13:00:36,0,100.0
2024-05-02T13:30:37,0,100.0
2024-05-02T14:00:36,0,100.0
2024-05-02T14:30:37,0,100.0
2024-05-02T15:00:37,0,100.0
2024-05-02T15:30:37,0,100.0
2024-05-02T16:00:36,0,99.99
2024-05-02T16:30:36,0,99.9
2024-05-02T17:00:37,0,99.89
2024-05-02T17:30:36,0,99.6
2024-05-02T18:00:36,0,98.47
2024-05-02T18:30:36,0,57.39
2024-05-03T05:30:37,0,100.0
2024-05-03T06:00:36,0,100.0
2024-05-03T06:30:37,0,100.0
2024-05-03T07:00:36,0,100.0
2024-05-03T07:30:37,0,94.79
2024-05-03T08:00:36,0,97.77
2024-05-03T08:30:37,0,99.31
2024-05-03T09:00:37,0,99.82
2024-05-03T09:30:37,0,99.71
2024-05-03T10:00:37,0,99.93
2024-05-03T10:30:37,0,99.81
2024-05-03T11:00:37,0,99.95
2024-05-03T11:30:37,0,99.99
2024-05-03T12:00:37,0,99.98
2024-05-03T12:30:36,0,100.0
2024-05-03T13:00:36,0,99.99
2024-05-03T13:30:36,0,99.94
2024-05-03T14:00:36,0,99.91
2024-05-03T14:30:37,0,96.03
2024-05-03T15:00:37,0,99.85
2024-05-03T15:30:37,0,99.37
2024-05-03T16:00:36,0,46.69
2024-05-03T16:30:36,0,99.23
2024-05-03T17:00:37,0,99.97
2024-05-03T18:00:36,0,99.55
2024-05-03T18:30:36,0,99.51
2024-05-04T05:30:36,0,99.18
2024-05-04T06:00:37,0,100.0
2024-05-04T06:30:36,0,100.0
2024-05-04T07:00:36,0,100.0
2024-05-04T07:30:37,0,100.0
2024-05-04T08:00:38,0,100.0
2024-05-04T08:30:37,0,100.0
2024-05-04T09:00:36,0,100.0
2024-05-04T09:30:36,0,100.0
2024-05-04T10:00:37,0,100.0
2024-05-04T10:30:37,0,100.0
2024-05-04T11:00:36,0,100.0
2024-05-04T11:30:36,0,99.99
2024-05-04T12:00:36,0,99.91
2024-05-04T12:30:37,0,99.96
2024-05-04T13:00:37,0,98.9
2024-05-04T13:30:37,0,99.91
2024-05-04T14:00:37,0,98.56
2024-05-04T14:30:37,0,91.53
2024-05-04T15:00:37,0,97.97
2024-05-04T15:30:37,0,92.73
2024-05-04T16:00:36,0,95.83
2024-05-04T16:30:36,100,65.34
2024-05-04T17:00:37,0,87.57
2024-05-04T17:30:36,0,92.37
2024-05-04T18:00:37,100,50.24
2024-05-04T18:30:36,100,89.15
2024-05-05T05:30:37,0,100.0
2024-05-05T06:00:37,0,100.0
2024-05-05T06:30:37,0,100.0
2024-05-05T07:00:38,0,100.0
2024-05-05T07:30:37,0,100.0
2024-05-05T09:00:36,0,99.71
2024-05-05T09:30:36,0,99.0
2024-05-05T10:00:37,0,99.88
2024-05-05T10:30:37,0,99.95
2024-05-05T11:00:37,0,99.77
2024-05-05T11:30:37,0,99.84
2024-05-05T12:00:37,0,99.98
2024-05-05T12:30:37,0,99.98
2024-05-05T13:00:37,0,99.79
2024-05-05T13:30:37,0,99.86
2024-05-05T14:00:37,100,72.03
2024-05-05T14:30:36,0,99.92
2024-05-05T15:00:36,0,98.69
2024-05-05T15:30:37,0,99.14
2024-05-05T16:00:37,0,96.06
2024-05-05T16:30:38,0,84.03
2024-05-05T17:00:37,0,94.63
2024-05-05T17:30:37,0,90.92
2024-05-05T18:00:37,0,95.08
2024-05-05T18:30:38,0,98.5
2024-05-06T05:30:36,0,100.0
2024-05-06T06:00:36,0,99.99
2024-05-06T06:30:36,0,97.31
2024-05-06T07:00:37,0,98.74
2024-05-06T07:30:37,0,99.58
2024-05-06T08:00:37,0,99.92
2024-05-06T08:30:37,0,99.96
2024-05-06T09:00:37,0,96.67
2024-05-06T09:30:37,0,99.99
2024-05-06T10:00:37,0,99.97
2024-05-06T10:30:37,0,99.99
2024-05-06T11:00:37,0,99.98
2024-05-06T11:30:36,0,99.99
2024-05-06T12:00:36,0,99.99
2024-05-06T12:30:37,0,98.42
2024-05-06T13:00:36,0,99.99
2024-05-06T13:30:36,0,99.63
2024-05-06T14:00:37,0,99.99
2024-05-06T14:30:37,0,99.99
2024-05-06T15:00:37,0,100.0
2024-05-06T15:30:37,0,99.99
2024-05-06T16:00:37,0,100.0
2024-05-06T16:30:36,0,99.99
2024-05-06T17:00:37,0,99.91
2024-05-06T17:30:37,0,94.82
2024-05-06T18:00:37,0,93.5
2024-05-06T18:30:37,0,97.27
2024-05-07T05:30:37,0,100.0
2024-05-07T06:00:37,0,100.0
2024-05-07T06:30:37,0,100.0
2024-05-07T07:00:37,0,100.0
2024-05-07T07:30:37,0,100.0
2024-05-07T08:00:36,0,100.0
2024-05-07T08:30:37,0,100.0
2024-05-07T09:00:37,0,100.0
2024-05-07T09:30:36,0,95.23
2024-05-07T10:00:37,0,99.74
2024-05-07T10:30:37,0,99.05
2024-05-07T11:00:37,0,99.87
2024-05-07T11:30:37,0,99.86
2024-05-07T12:00:36,0,99.94
2024-05-07T12:30:36,0,99.99
2024-05-07T13:00:36,0,99.98
2024-05-07T13:30:37,0,97.6
2024-05-07T14:00:36,0,99.68
2024-05-07T14:30:37,0,99.98
2024-05-07T15:00:36,0,94.74
2024-05-07T15:30:37,0,93.68
2024-05-07T16:00:37,0,99.56
2024-05-07T16:30:36,0,83.42
2024-05-07T17:00:37,0,94.76
2024-05-07T17:30:37,0,98.38
2024-05-07T18:00:37,0,69.01
2024-05-07T18:30:37,0,79.6
2024-05-08T05:30:36,0,100.0
2024-05-08T06:00:38,0,100.0
2024-05-08T06:30:37,0,100.0
2024-05-08T07:00:37,0,100.0
2024-05-08T07:30:36,0,100.0
2024-05-08T08:00:37,0,87.34
2024-05-08T08:30:37,0,98.3
2024-05-08T09:00:36,0,99.3
2024-05-08T09:30:37,0,99.18
2024-05-08T10:00:37,0,99.93
2024-05-08T10:30:37,0,99.74
2024-05-08T11:00:37,0,99.33
2024-05-08T11:30:36,0,99.83
2024-05-08T12:00:37,0,99.91
2024-05-08T12:30:37,0,99.9
2024-05-08T13:00:37,50,64.43
2024-05-08T13:30:37,0,98.12
2024-05-08T14:00:37,100,56.22
2024-05-08T14:30:37,100,42.69
2024-05-08T15:00:36,100,52.34
2024-05-08T15:30:37,50,55.84
2024-05-08T16:00:36,100,45.05
2024-05-08T16:30:37,100,62.9
2024-05-08T17:00:37,100,42.97
2024-05-08T17:30:37,100,76.11
2024-05-08T18:00:37,100,77.57
2024-05-08T18:30:37,0,51.65
2024-05-09T05:30:36,100,69.5
2024-05-09T06:00:37,100,49.53
2024-05-09T06:30:37,100,53.17
2024-05-09T07:00:37,100,37.04
2024-05-09T07:30:37,100,35.22
2024-05-09T08:00:36,100,40.32
2024-05-09T08:30:36,0,35.69
2024-05-09T09:00:36,50,41.92
2024-05-09T09:30:37,0,37.05
2024-05-09T10:00:37,100,42.91
2024-05-09T10:30:37,100,40.3
2024-05-09T11:00:37,0,37.97
2024-05-09T11:30:36,0,40.66
2024-05-09T12:00:37,0,37.92
2024-05-09T12:30:37,50,37.05
2024-05-09T13:00:37,50,35.99
2024-05-09T13:30:37,0,37.4
2024-05-09T14:00:37,0,40.74
2024-05-09T14:30:36,100,36.68
2024-05-09T15:00:36,100,48.98
2024-05-09T15:30:36,100,45.91
2024-05-09T16:00:38,50,46.56
2024-05-09T16:30:37,50,36.75
2024-05-09T17:00:37,0,50.99
2024-05-09T17:30:37,100,42.96
2024-05-09T18:00:37,0,53.71
2024-05-09T18:30:37,100,45.44
2024-05-10T05:30:36,0,99.99
2024-05-10T06:00:36,0,99.99
2024-05-10T06:30:37,0,99.99
2024-05-10T07:00:36,0,99.97
2024-05-10T07:30:36,50,51.9
2024-05-10T08:00:37,50,42.11
2024-05-10T08:30:37,100,45.26
2024-05-10T09:00:36,50,51.98
2024-05-10T09:30:37,50,44.96
2024-05-10T10:00:37,50,52.79
2024-05-10T10:30:37,100,41.62
2024-05-10T11:00:37,50,49.04
2024-05-10T11:30:37,0,79.55
2024-05-10T12:00:37,0,40.8
2024-05-10T12:30:37,100,39.21
2024-05-10T13:00:37,100,43.89
2024-05-10T13:30:37,0,46.08
2024-05-10T14:00:37,100,41.59
2024-05-10T14:30:37,0,36.14
2024-05-10T15:00:37,100,50.47
2024-05-10T15:30:36,100,44.27
2024-05-10T16:00:36,100,48.24
2024-05-10T16:30:36,100,50.36
2024-05-10T17:00:37,100,37.82
2024-05-10T17:30:37,50,49.01
2024-05-10T18:00:37,100,83.55
2024-05-10T18:30:37,0,83.23
2024-05-11T05:30:37,0,100.0
2024-05-11T06:00:37,0,99.97
2024-05-11T06:30:37,0,99.57
2024-05-11T07:00:37,100,49.16
2024-05-11T07:30:37,100,43.56
2024-05-11T08:00:37,100,45.17
2024-05-11T08:30:36,100,64.46
2024-05-11T09:00:37,100,38.4
2024-05-11T09:30:37,100,48.99
2024-05-11T10:00:37,0,50.35
2024-05-11T10:30:37,0,52.65
2024-05-11T11:00:37,0,55.11
2024-05-11T11:30:37,0,56.34
2024-05-11T12:00:37,0,62.47
2024-05-11T12:30:37,0,60.31
2024-05-11T13:00:37,0,63.55
2024-05-11T13:30:36,100,45.89
2024-05-11T14:00:37,0,48.83
2024-05-11T14:30:36,100,43.25
2024-05-11T15:00:37,50,35.06
2024-05-11T15:30:37,50,36.45
2024-05-11T16:00:38,50,43.48
2024-05-11T16:30:37,50,41.96
2024-05-11T17:00:37,50,46.96
2024-05-11T17:30:37,100,48.36
2024-05-11T18:00:37,0,36.43
2024-05-11T18:30:37,0,60.95
2024-05-12T05:30:37,0,84.46
2024-05-12T06:00:37,0,51.4
2024-05-12T06:30:37,0,37.76
2024-05-12T07:00:37,100,39.71
2024-05-12T07:30:37,50,45.5
2024-05-12T08:00:37,50,46.33
2024-05-12T08:30:37,100,37.01
2024-05-12T09:00:36,100,50.72
2024-05-12T09:30:38,100,42.92
2024-05-12T10:00:38,100,45.68
2024-05-12T10:30:37,100,43.32
2024-05-12T11:00:37,100,47.86
2024-05-12T11:30:37,100,41.55
2024-05-12T12:00:37,0,42.5
2024-05-12T12:30:37,100,58.55
2024-05-12T13:00:37,0,77.79
2024-05-12T13:30:38,0,69.15
2024-05-12T14:00:37,0,56.43
2024-05-12T14:30:37,100,47.21
2024-05-12T15:00:36,0,81.77
2024-05-12T15:30:37,0,47.1
2024-05-12T16:00:37,0,49.79
2024-05-12T16:30:37,50,39.09
2024-05-12T17:00:37,50,63.75
2024-05-12T17:30:37,50,51.06
2024-05-12T18:00:38,50,42.65
2024-05-12T18:30:37,0,95.06
2024-05-13T05:30:37,0,93.47
2024-05-13T06:00:36,0,99.18
2024-05-13T06:30:36,0,69.05
2024-05-13T07:00:37,0,56.15
2024-05-13T07:30:38,0,58.97
2024-05-13T08:00:37,0,48.55
2024-05-13T08:30:37,0,43.51
2024-05-13T09:00:37,50,48.69
2024-05-13T09:30:37,50,46.86
2024-05-13T10:00:37,50,48.51
2024-05-13T10:30:37,0,54.44
2024-05-13T11:00:37,50,49.82
2024-05-13T11:30:37,0,50.81
2024-05-13T12:00:37,0,75.46
2024-05-13T12:30:37,0,65.87
2024-05-13T13:00:37,0,59.66
2024-05-13T13:30:38,0,61.37
2024-05-13T14:00:38,0,57.35
2024-05-13T14:30:37,0,74.41
2024-05-13T15:00:37,0,69.89
2024-05-13T15:30:37,0,65.89
2024-05-13T16:00:38,0,60.51
2024-05-13T16:30:37,0,59.65
2024-05-13T17:00:37,50,49.18
2024-05-13T17:30:37,50,60.45
2024-05-13T18:00:37,50,54.72
2024-05-13T18:30:37,0,87.67
2024-05-14T05:30:37,0,93.97
2024-05-14T06:00:37,0,61.06
2024-05-14T06:30:37,50,43.21
2024-05-14T07:00:37,50,42.36
2024-05-14T07:30:37,50,48.12
2024-05-14T08:00:38,50,42.72
2024-05-14T08:30:37,50,41.99
2024-05-14T09:00:37,50,36.07
2024-05-14T09:30:37,50,75.94
2024-05-14T10:00:37,50,73.16
2024-05-14T10:30:37,50,54.4
2024-05-14T11:00:37,50,48.44
2024-05-14T11:30:37,50,50.59
2024-05-14T12:00:37,50,38.04
2024-05-14T12:30:37,50,36.81
2024-05-14T13:00:37,100,36.88
2024-05-14T13:30:37,0,60.72
2024-05-14T14:00:37,0,46.89
2024-05-14T14:30:37,0,44.28
2024-05-14T15:00:37,50,42.17
2024-05-14T15:30:37,50,48.29
2024-05-14T16:00:37,50,63.73
2024-05-14T16:30:37,50,50.01
2024-05-14T17:00:37,50,67.35
2024-05-14T17:30:37,50,54.15
2024-05-14T18:00:37,0,41.0
2024-05-14T18:30:37,0,97.14